Location: Kiltepe
(36.4752°N, 30.0120°E)
Time: 21:25:55
(UTC+00:00)

CZ-4C R/B - Pass Details

Date: 03 August 2024
Orbit: 521 x 1470 km, 63.4° (Epoch: 18 September)

Event Time Altitude Azimuth Distance (km) Brightness Sun altitude
Rises 17:28:10 0° 331° (NNW) 3,882 6.7 -5.3°
Reaches altitude 10° 17:30:41 10° 334° (NNW) 3,048 6.0 -5.8°
Maximum altitude 17:38:11 65° 56° (NE) 1,441 3.3 -7.1°
Drops below altitude 10° 17:47:00 10° 137° (SE) 3,556 4.8 -8.7°
Enters shadow 17:47:37 - 138° (SE) 3,749 4.9 -8.8°
